星链-3502 (STARLINK-3502 )

导读

STARLINK-3502是美国太空探索技术公司(SpaceX)星链(Starlink)互联网卫星星座的一员,于2022年2月21日发射升空,属于星链项目Group 4批次的组网卫星。星链计划旨在构建全球卫星互联网,该卫星承担着为全球尤其是偏远地区提供低延迟宽带网络服务的任务,是SpaceX大规模卫星组网进程中的组成部分。

基本信息
目录编号:
51746
目录名称:
STARLINK-3502
国际标识:
2022-016AJ
轨道中心:
EARTH
卫星名称:
星链-3502
卫星全名:
星链-3502 (STARLINK-3502 )
卫星状态:
在轨 (已飞行1657 天)
发射日期:
2022-02-21 UTC
国别 :
美国 (US)
星等 :
--
轨道信息
数据来源 国际轨道数据
星历时间: 2026-09-03T16:15:46+0800
1天前
查看轨道信息
半长轴: 6848.866km
偏心率: 0.0001254
轨道倾角: 53.159°
近地点辐角 89.252°
升交点赤经 221.642°
平近点角 270.863°
近地点: 469.87km
远地点: 471.588km
周期: 94.013分钟
每日圈数: 15.317037
详细信息
固有亮度:
5
最大亮度:
2.5
卫星平台:
Starlink v1.5
覆盖范围:
全球
运营商:
太空探索技术公司
运营商所在国:
美国
制造商(研发单位):
太空探索技术公司
制造商所在国:
美国
使用方式:
暂无
卫星简介
星链(Starlink)计划是由太空探索技术公司(SpaceX)提出的一个巨型低轨卫星互联网星座项目,计划在2019年至2024年间在太空搭建由约1.2万颗卫星组成的“星链”网络,其中1584颗将部署在地球上空550千米处的近地轨道,并从2020年开始工作。该卫星仍在工作。
2D轨道图
3D轨道图
轨道高度分析图
轨道倾角分析图
轨道综合分析图
查看轨道综合分析图
交会数据列表
事件ID 空间交会对象 最接近时刻(TCA) 交会距离 交会风险概率(CRP) 交会风险指数(CRI) 操作
CDM_260906-175005-174605-316821
2026-09-06T
17:50:12+0000
0.722 km
远距离
6.541588E-5 中风险 0.71
CDM_260906-091305-174605-316821
2026-09-06T
09:13:22+0000
0.983 km
远距离
2.395519E-5 中风险 0.63
CDM_260904-212305-174606-880321
2026-09-04T
21:23:48+0000
2.792 km
极远距离
1.370747E-6 低风险 0.38
CDM_260905-175905-174605-701422
OBJECT L (57014)
2026-09-05T
17:59:11+0000
2.953 km
极远距离
1.340302E-6 低风险 0.38
CDM_260906-145505-174606-968921
2026-09-06T
14:55:37+0000
2.862 km
极远距离
1.29124E-6 低风险 0.37
CDM_260902-041705-174606-930421
2026-09-02T
04:17:56+0000
2.965 km
极远距离
9.324057E-7 极低风险 0.34
CDM_260905-221805-174605-635621
2026-09-05T
22:18:57+0000
2.985 km
极远距离
8.921508E-7 极低风险 0.34